Date String (YYYY-MM-DD hh:mm:ss) UTC,Instrument flags,Ambient pressure (hPa),Sample flow (lpm),Bypass flow (lpm),Sample temperature (°C),Ambient temperature (°C),ASC tube jacket temperature (°C),LED temperature (°C),Box temperature (°C),Sample RH (%),Span deviation,Mass concentration (μg/m³),Mass concentration (μg/m³),Mass concentration (μg/m³)
DateTimeUTC,F1_M11,P_M11,Q1_M11,Q2_M11,T1_M11,T2_M11,T3_M11,T4_M11,T5_M11,U1_M11,ZSPAN_M11,X2_M11,X0_M11,X1_M11
2023-02-21 02:00:00,,0817.3,5.00,0.00,22.0,20.5,00.0,30.9,23.8,11.9,0000.0,0000.57,0001.22,0000.33
2023-02-21 02:01:00,,0817.4,5.02,0.00,22.0,20.5,00.0,30.9,23.8,12.0,0000.0,0000.56,0001.19,0000.33
2023-02-21 02:02:00,,0817.4,4.99,0.00,22.0,20.5,00.0,30.9,23.8,12.0,0000.0,0000.57,0001.21,0000.34
2023-02-21 02:03:00,,0817.4,5.00,0.00,22.0,20.5,00.0,30.9,23.8,11.9,0000.0,0000.56,0001.12,0000.35
2023-02-21 02:04:00,,0817.4,4.99,0.00,22.0,20.6,00.0,30.9,23.9,12.0,0000.0,0000.55,0001.07,0000.35
2023-02-21 02:05:00,,0817.5,5.00,0.00,22.0,20.6,00.0,30.9,23.9,12.0,0000.0,0000.55,0001.06,0000.35
2023-02-21 02:06:00,,0817.5,5.00,0.00,22.0,20.6,00.0,30.9,23.8,11.8,0000.0,0000.56,0001.78,0000.35
2023-02-21 02:07:00,,0817.5,5.00,0.00,22.0,20.6,00.0,30.9,23.8,11.9,0000.0,0000.57,0002.44,0000.35
2023-02-21 02:08:00,,0817.5,5.00,0.00,22.0,20.5,00.0,30.9,23.8,11.8,0000.0,0000.56,0002.41,0000.35
2023-02-21 02:09:00,,0817.5,5.00,0.00,22.0,20.5,00.0,30.9,23.8,11.8,0000.0,0000.56,0002.40,0000.36
2023-02-21 02:10:00,,0817.3,4.99,0.00,22.0,20.6,00.0,30.9,23.8,11.8,0000.0,0000.54,0002.34,0000.37
2023-02-21 02:11:00,,0817.3,4.99,0.00,22.0,20.6,00.0,30.9,23.8,11.8,0000.0,0000.53,0002.30,0000.37
2023-02-21 02:12:00,,0817.4,5.00,0.00,22.0,20.6,00.0,30.9,23.8,11.8,0000.0,0000.53,0002.32,0000.36
2023-02-21 02:13:00,,0817.4,5.00,0.00,22.0,20.6,00.0,30.9,23.9,11.9,0000.0,0000.53,0002.32,0000.36
2023-02-21 02:14:00,,0817.5,5.00,0.00,22.0,20.6,00.0,30.9,23.8,11.9,0000.0,0000.55,0002.41,0000.36
2023-02-21 02:15:00,,0817.5,5.00,0.00,22.0,20.6,00.0,30.9,23.8,11.8,0000.0,0000.57,0002.46,0000.36
2023-02-21 02:16:00,,0817.5,5.01,0.00,22.0,20.6,00.0,30.9,23.8,11.7,0000.0,0000.61,0002.58,0000.36
2023-02-21 02:17:00,,0817.4,5.02,0.00,22.0,20.5,00.0,30.9,23.8,11.7,0000.0,0000.63,0002.08,0000.36
2023-02-21 02:18:00,,0817.3,4.99,0.00,22.0,20.5,00.0,30.9,23.9,11.8,0000.0,0000.62,0001.17,0000.36
2023-02-21 02:19:00,,0817.3,5.00,0.00,22.0,20.5,00.0,30.9,23.9,11.9,0000.0,0000.62,0001.21,0000.36
2023-02-21 02:20:00,,0817.3,5.00,0.00,22.0,20.6,00.0,30.9,23.9,11.9,0000.0,0000.60,0001.17,0000.35
2023-02-21 02:21:00,,0817.4,4.99,0.00,22.0,20.6,00.0,30.9,23.9,12.0,0000.0,0000.62,0001.23,0000.35
2023-02-21 02:22:00,,0817.4,5.00,0.00,22.0,20.5,00.0,30.9,23.9,11.9,0000.0,0000.63,0001.27,0000.36
2023-02-21 02:23:00,,0817.3,5.00,0.00,22.0,20.4,00.0,30.9,23.8,12.0,0000.0,0000.64,0001.26,0000.37
2023-02-21 02:24:00,,0817.2,5.00,0.00,22.0,20.3,00.0,30.9,23.7,12.1,0000.0,0000.63,0001.24,0000.37
2023-02-21 02:25:00,,0817.0,5.00,0.00,22.0,20.3,00.0,30.9,23.7,12.1,0000.0,0000.65,0001.20,0000.38
2023-02-21 02:26:00,,0817.1,5.00,0.00,22.0,20.3,00.0,30.9,23.8,12.1,0000.0,0000.65,0001.16,0000.39
2023-02-21 02:27:00,,0817.0,5.01,0.00,22.0,20.3,00.0,30.9,23.8,12.1,0000.0,0000.61,0001.03,0000.39
2023-02-21 02:28:00,,0817.0,5.02,0.00,22.0,20.9,00.0,30.8,23.9,12.1,0000.0,0000.61,0001.03,0000.40
2023-02-21 02:29:00,,0817.0,5.01,0.00,22.1,22.0,00.0,30.8,24.1,12.0,0000.0,0000.62,0001.08,0000.40
2023-02-21 02:30:00,,0817.0,4.99,0.00,22.2,22.7,00.0,30.8,24.3,12.2,0000.0,0000.61,0001.00,0000.41
2023-02-21 02:31:00,,0816.9,4.98,0.00,22.3,22.4,00.0,30.9,24.3,12.4,0000.0,0000.62,0001.00,0000.41
2023-02-21 02:32:00,,0816.8,4.98,0.00,22.3,22.0,00.0,30.9,24.2,12.3,0000.0,0000.62,0000.98,0000.42
2023-02-21 02:33:00,,0816.8,5.00,0.00,22.3,21.6,00.0,31.0,24.1,12.1,0000.0,0000.66,0001.05,0000.42
2023-02-21 02:34:00,,0816.9,5.02,0.00,22.2,21.4,00.0,31.0,24.1,12.2,0000.0,0000.67,0001.08,0000.43
2023-02-21 02:35:00,,0816.9,4.99,0.00,22.2,21.1,00.0,31.0,24.0,12.2,0000.0,0000.66,0001.06,0000.43
2023-02-21 02:36:00,,0816.8,5.02,0.00,22.2,21.0,00.0,31.1,24.0,12.3,0000.0,0000.67,0001.10,0000.42
2023-02-21 02:37:00,,0816.9,4.99,0.00,22.2,20.9,00.0,31.1,24.0,12.4,0000.0,0000.64,0001.07,0000.42
2023-02-21 02:38:00,,0817.0,5.01,0.00,22.2,20.8,00.0,31.1,24.0,12.3,0000.0,0000.68,0001.17,0000.42
2023-02-21 02:39:00,,0817.0,5.01,0.00,22.2,20.8,00.0,31.1,24.0,12.4,0000.0,0000.68,0001.19,0000.42
2023-02-21 02:40:00,,0816.9,5.00,0.00,22.2,20.7,00.0,31.1,24.0,12.3,0000.0,0000.67,0001.15,0000.43
2023-02-21 02:41:00,,0817.0,4.99,0.00,22.2,20.7,00.0,31.1,24.0,11.8,0000.0,0000.67,0001.18,0000.43
2023-02-21 02:42:00,,0817.0,4.99,0.00,22.2,20.7,00.0,31.1,24.0,11.9,0000.0,0000.70,0001.25,0000.43
2023-02-21 02:43:00,,0817.0,5.01,0.00,22.2,20.6,00.0,31.1,24.0,11.8,0000.0,0000.70,0001.35,0000.43
2023-02-21 02:44:00,,0816.9,5.01,0.00,22.2,20.6,00.0,31.1,24.0,11.7,0000.0,0000.70,0001.39,0000.43
2023-02-21 02:45:00,,0816.9,5.01,0.00,22.2,20.6,00.0,31.1,24.0,11.6,0000.0,0000.70,0001.43,0000.42
2023-02-21 02:46:00,,0817.1,5.00,0.00,22.2,20.6,00.0,31.1,24.0,11.5,0000.0,0000.71,0001.46,0000.42
2023-02-21 02:47:00,,0817.0,5.00,0.00,22.2,20.6,00.0,31.1,24.0,11.5,0000.0,0000.69,0001.47,0000.42
2023-02-21 02:48:00,,0816.9,5.00,0.00,22.2,20.7,00.0,31.1,24.0,11.5,0000.0,0000.68,0001.47,0000.42
2023-02-21 02:49:00,,0817.0,5.00,0.00,22.2,20.7,00.0,31.1,24.0,11.5,0000.0,0000.67,0001.43,0000.41
2023-02-21 02:50:00,,0816.9,5.00,0.00,22.2,20.8,00.0,31.1,24.0,11.7,0000.0,0000.64,0001.39,0000.40
2023-02-21 02:51:00,,0817.0,4.99,0.00,22.2,20.8,00.0,31.1,24.0,11.8,0000.0,0000.65,0001.37,0000.41
2023-02-21 02:52:00,,0817.0,5.00,0.00,22.2,20.8,00.0,31.1,24.0,12.0,0000.0,0000.66,0001.47,0000.41
2023-02-21 02:53:00,,0817.0,4.99,0.00,22.2,20.8,00.0,31.1,24.0,12.1,0000.0,0000.65,0001.43,0000.41
2023-02-21 02:54:00,,0817.0,4.99,0.00,22.2,20.7,00.0,31.1,24.0,12.1,0000.0,0000.62,0001.27,0000.41
2023-02-21 02:55:00,,0817.1,4.98,0.00,22.2,20.7,00.0,31.1,24.0,12.1,0000.0,0000.58,0001.13,0000.41
2023-02-21 02:56:00,,0817.0,4.98,0.00,22.2,20.7,00.0,31.1,24.0,12.2,0000.0,0000.57,0001.07,0000.42
2023-02-21 02:57:00,,0817.0,5.01,0.00,22.2,20.7,00.0,31.1,24.0,12.3,0000.0,0000.61,0001.14,0000.42
2023-02-21 02:58:00,,0817.2,5.00,0.00,22.2,20.6,00.0,31.1,24.0,12.4,0000.0,0000.65,0001.14,0000.44
2023-02-21 02:59:00,,0817.1,5.00,0.00,22.2,20.6,00.0,31.1,24.0,12.4,0000.0,0000.70,0001.21,0000.45
